TimeEST,TemperatureF,Dew PointF,Humidity,Sea Level PressureIn,VisibilityMPH,Wind Direction,Wind SpeedMPH,Gust SpeedMPH,PrecipitationIn,Events,Conditions,WindDirDegrees,DateUTC
12:15 AM,53.6,51.8,94,29.84,8.0,ESE,5.8,-,N/A,,Overcast,120,2012-12-05 05:15:00
12:35 AM,51.8,51.8,100,29.83,9.0,Calm,Calm,-,N/A,,Overcast,0,2012-12-05 05:35:00
12:55 AM,53.6,51.8,94,29.83,10.0,SE,5.8,-,0.03,,Overcast,130,2012-12-05 05:55:00
1:15 AM,51.8,51.8,100,29.82,10.0,SSE,4.6,-,N/A,,Overcast,150,2012-12-05 06:15:00
1:35 AM,53.6,51.8,94,29.82,10.0,South,4.6,-,N/A,,Overcast,190,2012-12-05 06:35:00
1:55 AM,55.4,51.8,88,29.85,7.0,NW,11.5,17.3,N/A,,Overcast,320,2012-12-05 06:55:00
2:15 AM,50.0,46.4,87,29.86,10.0,North,4.6,-,0.02,,Overcast,350,2012-12-05 07:15:00
2:55 AM,48.2,44.6,87,29.90,10.0,NNW,4.6,-,0.07,,Mostly Cloudy,340,2012-12-05 07:55:00
3:15 AM,46.4,44.6,93,29.90,10.0,NNW,5.8,-,0.03,,Mostly Cloudy,340,2012-12-05 08:15:00
3:35 AM,46.4,44.6,93,29.90,10.0,NNW,3.5,-,0.07,,Overcast,330,2012-12-05 08:35:00
4:15 AM,46.4,44.6,93,29.89,10.0,North,4.6,-,N/A,,Overcast,360,2012-12-05 09:15:00
4:35 AM,46.4,44.6,93,29.89,10.0,Calm,Calm,-,N/A,,Overcast,0,2012-12-05 09:35:00
4:55 AM,44.6,44.6,100,29.89,10.0,Calm,Calm,-,N/A,,Mostly Cloudy,0,2012-12-05 09:55:00
5:15 AM,46.4,42.8,87,29.89,10.0,WNW,6.9,17.3,N/A,,Overcast,290,2012-12-05 10:15:00
5:35 AM,46.4,42.8,87,29.89,10.0,WNW,5.8,-,N/A,,Mostly Cloudy,290,2012-12-05 10:35:00
5:55 AM,46.4,41.0,81,29.89,10.0,WSW,5.8,-,N/A,,Mostly Cloudy,240,2012-12-05 10:55:00
6:15 AM,44.6,41.0,87,29.90,10.0,Calm,Calm,-,N/A,,Overcast,0,2012-12-05 11:15:00
6:35 AM,46.4,39.2,76,29.90,10.0,West,5.8,-,N/A,,Overcast,260,2012-12-05 11:35:00
7:15 AM,44.6,39.2,81,29.91,10.0,WSW,8.1,-,N/A,,Overcast,240,2012-12-05 12:15:00
7:35 AM,44.6,39.2,81,29.91,10.0,WSW,10.4,-,N/A,,Overcast,240,2012-12-05 12:35:00
7:55 AM,44.6,39.2,81,29.91,10.0,West,9.2,-,N/A,,Overcast,260,2012-12-05 12:55:00
9:55 AM,44.6,35.6,71,29.94,10.0,NW,11.5,16.1,N/A,,Overcast,320,2012-12-05 14:55:00
10:15 AM,41.0,35.6,81,29.95,10.0,NW,9.2,19.6,0.02,,Overcast,310,2012-12-05 15:15:00
10:35 AM,42.8,33.8,70,29.96,10.0,NW,9.2,16.1,0.02,,Overcast,320,2012-12-05 15:35:00
10:55 AM,42.8,32.0,66,29.96,10.0,NW,10.4,17.3,0.02,,Overcast,310,2012-12-05 15:55:00
11:15 AM,41.0,30.2,65,29.96,10.0,WNW,8.1,-,N/A,,Overcast,300,2012-12-05 16:15:00
11:35 AM,41.0,30.2,65,29.96,10.0,NW,12.7,19.6,N/A,,Overcast,310,2012-12-05 16:35:00
11:55 AM,39.2,28.4,65,29.96,10.0,WNW,10.4,20.7,N/A,,Overcast,300,2012-12-05 16:55:00
12:55 PM,37.4,24.8,60,29.97,10.0,WNW,9.2,19.6,N/A,,Overcast,300,2012-12-05 17:55:00
1:55 PM,35.6,24.8,65,29.99,10.0,WNW,9.2,-,N/A,,Overcast,290,2012-12-05 18:55:00
2:15 PM,35.6,21.2,56,29.99,10.0,WNW,11.5,20.7,N/A,,Overcast,300,2012-12-05 19:15:00
2:35 PM,35.6,21.2,56,30.00,10.0,West,10.4,20.7,N/A,,Overcast,280,2012-12-05 19:35:00
2:55 PM,35.6,21.2,56,30.00,10.0,West,17.3,24.2,N/A,,Overcast,280,2012-12-05 19:55:00
3:15 PM,35.6,21.2,56,30.02,10.0,NW,15.0,21.9,N/A,,Overcast,310,2012-12-05 20:15:00
3:35 PM,33.8,19.4,56,30.03,10.0,WNW,15.0,21.9,N/A,,Overcast,300,2012-12-05 20:35:00
3:55 PM,33.8,21.2,60,30.04,10.0,NW,9.2,-,N/A,,Overcast,310,2012-12-05 20:55:00
4:15 PM,33.8,19.4,56,30.05,10.0,WNW,12.7,19.6,N/A,,Overcast,300,2012-12-05 21:15:00
4:35 PM,33.8,19.4,56,30.05,10.0,WNW,9.2,17.3,N/A,,Overcast,300,2012-12-05 21:35:00
4:55 PM,33.8,19.4,56,30.06,10.0,NNW,10.4,-,N/A,,Overcast,330,2012-12-05 21:55:00
5:15 PM,32.0,19.4,60,30.08,10.0,NNW,13.8,20.7,N/A,,Overcast,330,2012-12-05 22:15:00
5:35 PM,32.0,19.4,60,30.09,10.0,NNW,12.7,23.0,N/A,,Overcast,340,2012-12-05 22:35:00
5:55 PM,32.0,17.6,55,30.09,10.0,North,15.0,19.6,N/A,,Overcast,350,2012-12-05 22:55:00
6:35 PM,30.2,17.6,60,30.10,10.0,NNW,11.5,18.4,N/A,,Overcast,330,2012-12-05 23:35:00
6:55 PM,30.2,17.6,60,30.12,10.0,NNW,11.5,17.3,N/A,,Overcast,330,2012-12-05 23:55:00
7:35 PM,28.4,17.6,64,30.14,10.0,NW,13.8,20.7,N/A,,Overcast,320,2012-12-06 00:35:00
7:55 PM,28.4,15.8,59,30.15,10.0,NNW,9.2,18.4,N/A,,Overcast,330,2012-12-06 00:55:00
8:15 PM,28.4,15.8,59,30.15,10.0,NNW,16.1,21.9,N/A,,Overcast,330,2012-12-06 01:15:00
8:35 PM,28.4,15.8,59,30.16,10.0,NNW,13.8,23.0,N/A,,Overcast,330,2012-12-06 01:35:00
8:55 PM,28.4,15.8,59,30.16,10.0,NNW,11.5,17.3,N/A,,Overcast,330,2012-12-06 01:55:00
9:15 PM,28.4,15.8,59,30.17,10.0,NW,8.1,16.1,N/A,,Overcast,320,2012-12-06 02:15:00
9:35 PM,26.6,15.8,64,30.17,10.0,NNW,9.2,17.3,N/A,,Overcast,330,2012-12-06 02:35:00
9:55 PM,26.6,14.0,59,30.18,10.0,NW,9.2,17.3,N/A,,Overcast,320,2012-12-06 02:55:00
10:35 PM,26.6,15.8,64,30.18,10.0,NNW,12.7,19.6,N/A,,Overcast,330,2012-12-06 03:35:00
11:15 PM,26.6,15.8,64,30.19,10.0,NW,10.4,19.6,N/A,,Overcast,320,2012-12-06 04:15:00
11:35 PM,26.6,15.8,64,30.20,10.0,NW,11.5,19.6,N/A,,Overcast,310,2012-12-06 04:35:00